Regional Weather Roundup
Issued by NWS

Home | Current Version | Previous Version | Text Only | Print | Product List | Glossary Off
Versions: 1 2 3 4 5 6 7 8 9 10 11 12 13 14 15 16 17 18 19 20 21 22 23 24 25 26 27 28 29 30 31 32 33 34 35 36 37 38 39 40 41 42 43 44 45 46 47 48 49 50

000
ASUS43 KTOP 190059
RWRKS

WEATHER ROUNDUP FOR KANSAS
NATIONAL WEATHER SERVICE GOODLAND KS
800 PM CDT THU SEP 18 2014

NOTE:  "FAIR" INDICATES FEW OR NO CLOUDS BELOW 12,000 FEET WITH NO
SIGNIFICANT WEATHER AND/OR OBSTRUCTIONS TO VISIBILITY.

KSZ001>006-013>018-027>032-041>047-190200-
NORTHWEST KANSAS

CITY           SKY/WX    TMP DP  RH WIND       PRES   REMARKS
GOODLAND       CLEAR     74  61  63 E10       29.91S
HAYS           CLEAR     79  63  57 S13       29.87S
HILL CITY      CLEAR     73  67  81 NE5       29.87S
RUSSELL        CLEAR     76  61  59 SE10      29.87R
$$

KSZ061>065-074>080-084>089-190200-
SOUTHWEST KANSAS

CITY           SKY/WX    TMP DP  RH WIND       PRES   REMARKS
DODGE CITY     CLEAR     80  61  52 S10       29.92R
ELKHART          N/A     74  59  59 S9          N/A
GARDEN CITY    CLEAR     76  57  51 S7        29.91R
GREAT BEND     CLEAR     79  61  53 S12       29.89S
LIBERAL        CLEAR     79  54  41 S12       29.95R
$$

KSZ066>073-081>083-090>101-190200-
SOUTHEAST KANSAS

CITY           SKY/WX    TMP DP  RH WIND       PRES   REMARKS
CHANUTE        PTCLDY    70  65  84 SE5       29.96R
COFFEYVILLE    CLEAR     70  65  84 NE5       29.94R
HUTCHINSON     CLEAR     79  57  46 SE8       29.91R
NEWTON         CLEAR     72  63  73 E12       29.97R
PARSONS        CLEAR     67  65  93 CALM      29.97R
WICHITA INTL   PTCLDY    75  59  57 E16       29.93R
WICHITA JABRA  CLEAR     72  64  76 SE10      29.94R
WINFIELD       CLEAR     71  64  78 E12G20    29.95R
$$

KSZ007>012-019>026-033>040-048>060-102>105-190200-
NORTHEAST KANSAS

CITY           SKY/WX    TMP DP  RH WIND       PRES   REMARKS
CONCORDIA      CLEAR     72  66  81 SE10      29.91R
EMPORIA        PTCLDY    69  65  86 E12       29.96R
LAWRENCE       CLEAR     64  60  87 E6        29.99S FOG
MANHATTAN      PTCLDY    68  63  84 E9        29.95R
OLATHE IND     CLEAR     64  61  90 E6        29.99F
OLATHE EXE     CLEAR     64  61  90 E8        29.99S
SALINA         CLEAR     76  66  71 SE13      29.91R
TOPEKA BILLARD CLEAR     65  63  93 E3        29.99R
TOPEKA FORBES  MOCLDY    65  61  87 E3        29.98R
$$


USA.gov is the U.S. government's official web portal to all federal, state and local government web resources and services.